Year,Month,Day,Hour,Minute,Value (Times are PST for temperature in C)
2006,06,28,00,00,12.60
2006,06,28,00,01,12.60
2006,06,28,00,02,12.60
2006,06,28,00,03,12.50
2006,06,28,00,04,12.50
2006,06,28,00,05,12.40
2006,06,28,00,06,12.40
2006,06,28,00,07,12.40
2006,06,28,00,08,12.40
2006,06,28,00,09,12.40
2006,06,28,00,10,12.30
2006,06,28,00,11,12.30
2006,06,28,00,12,12.30
2006,06,28,00,13,12.30
2006,06,28,00,14,12.30
2006,06,28,00,15,12.20
2006,06,28,00,16,12.20
2006,06,28,00,17,12.20
2006,06,28,00,18,12.10
2006,06,28,00,19,12.10
2006,06,28,00,20,12.00
2006,06,28,00,21,12.00
2006,06,28,00,22,12.00
2006,06,28,00,23,12.00
2006,06,28,00,24,12.00
2006,06,28,00,25,11.90
2006,06,28,00,26,11.90
2006,06,28,00,27,11.90
2006,06,28,00,28,11.90
2006,06,28,00,29,11.90
2006,06,28,00,30,11.80
2006,06,28,00,31,11.80
2006,06,28,00,32,11.80
2006,06,28,00,33,11.80
2006,06,28,00,34,11.70
2006,06,28,00,35,11.70
2006,06,28,00,36,11.70
2006,06,28,00,37,11.70
2006,06,28,00,38,11.70
2006,06,28,00,39,11.70
2006,06,28,00,40,11.70
2006,06,28,00,41,11.70
2006,06,28,00,42,11.70
2006,06,28,00,43,11.70
2006,06,28,00,44,11.70
2006,06,28,00,45,11.70
2006,06,28,00,46,11.70
2006,06,28,00,47,11.70
2006,06,28,00,48,11.60
2006,06,28,00,49,11.60
2006,06,28,00,50,11.60
2006,06,28,00,51,11.60
2006,06,28,00,52,11.60
2006,06,28,00,53,11.60
2006,06,28,00,54,11.60
2006,06,28,00,55,11.50
2006,06,28,00,56,11.50
2006,06,28,00,57,11.50
2006,06,28,00,58,11.50
2006,06,28,00,59,11.50
2006,06,28,01,00,11.50
2006,06,28,01,01,11.50
2006,06,28,01,02,11.50
2006,06,28,01,03,11.60
2006,06,28,01,04,11.60
2006,06,28,01,05,11.60
2006,06,28,01,06,11.60
2006,06,28,01,07,11.60
2006,06,28,01,08,11.60
2006,06,28,01,09,11.60
2006,06,28,01,10,11.60
2006,06,28,01,11,11.60
2006,06,28,01,12,11.60
2006,06,28,01,13,11.60
2006,06,28,01,14,11.60
2006,06,28,01,15,11.60
2006,06,28,01,16,11.50
2006,06,28,01,17,11.50
2006,06,28,01,18,11.50
2006,06,28,01,19,11.50
2006,06,28,01,20,11.40
2006,06,28,01,21,11.40
2006,06,28,01,22,11.40
2006,06,28,01,23,11.30
2006,06,28,01,24,11.30
2006,06,28,01,25,11.30
2006,06,28,01,26,11.40
2006,06,28,01,27,11.40
2006,06,28,01,28,11.30
2006,06,28,01,29,11.30
2006,06,28,01,30,11.30
2006,06,28,01,31,11.40
2006,06,28,01,32,11.30
2006,06,28,01,33,11.30
2006,06,28,01,34,11.30
2006,06,28,01,35,11.30
2006,06,28,01,36,11.30
2006,06,28,01,37,11.30
2006,06,28,01,38,11.30
2006,06,28,01,39,11.30
2006,06,28,01,40,11.30
2006,06,28,01,41,11.30
2006,06,28,01,42,11.30
2006,06,28,01,43,11.30
2006,06,28,01,44,11.30
2006,06,28,01,45,11.30
2006,06,28,01,46,11.20
2006,06,28,01,47,11.20
2006,06,28,01,48,11.20
2006,06,28,01,49,11.20
2006,06,28,01,50,11.10
2006,06,28,01,51,11.10
2006,06,28,01,52,11.10
2006,06,28,01,53,11.00
2006,06,28,01,54,11.00
2006,06,28,01,55,10.90
2006,06,28,01,56,10.90
2006,06,28,01,57,10.80
2006,06,28,01,58,10.70
2006,06,28,01,59,10.70
2006,06,28,02,00,10.70
2006,06,28,02,01,10.60
2006,06,28,02,02,10.60
2006,06,28,02,03,10.50
2006,06,28,02,04,10.50
2006,06,28,02,05,10.50
2006,06,28,02,06,10.50
2006,06,28,02,07,10.40
2006,06,28,02,08,10.50
2006,06,28,02,09,10.50
2006,06,28,02,10,10.50
2006,06,28,02,11,10.40
2006,06,28,02,12,10.40
2006,06,28,02,13,10.50
2006,06,28,02,14,10.50
2006,06,28,02,15,10.50
2006,06,28,02,16,10.50
2006,06,28,02,17,10.50
2006,06,28,02,18,10.50
2006,06,28,02,19,10.50
2006,06,28,02,20,10.50
2006,06,28,02,21,10.50
2006,06,28,02,22,10.50
2006,06,28,02,23,10.50
2006,06,28,02,24,10.50
2006,06,28,02,25,10.50
2006,06,28,02,26,10.60
2006,06,28,02,27,10.60
2006,06,28,02,28,10.60
2006,06,28,02,29,10.60
2006,06,28,02,30,10.60
2006,06,28,02,31,10.60
2006,06,28,02,32,10.60
2006,06,28,02,33,10.50
2006,06,28,02,34,10.50
2006,06,28,02,35,10.50
2006,06,28,02,36,10.40
2006,06,28,02,37,10.40
2006,06,28,02,38,10.40
2006,06,28,02,39,10.40
2006,06,28,02,40,10.40
2006,06,28,02,41,10.30
2006,06,28,02,42,10.30
2006,06,28,02,43,10.30
2006,06,28,02,44,10.30
2006,06,28,02,45,10.30
2006,06,28,02,46,10.30
2006,06,28,02,47,10.30
2006,06,28,02,48,10.30
2006,06,28,02,49,10.30
2006,06,28,02,50,10.30
2006,06,28,02,51,10.30
2006,06,28,02,52,10.30
2006,06,28,02,53,10.30
2006,06,28,02,54,10.30
2006,06,28,02,55,10.40
2006,06,28,02,56,10.40
2006,06,28,02,57,10.40
2006,06,28,02,58,10.40
2006,06,28,02,59,10.30
2006,06,28,03,00,10.30
2006,06,28,03,01,10.20
2006,06,28,03,02,10.20
2006,06,28,03,03,10.10
2006,06,28,03,04,10.10
2006,06,28,03,05,10.10
2006,06,28,03,06,10.10
2006,06,28,03,07,10.10
2006,06,28,03,08,10.10
2006,06,28,03,09,10.00
2006,06,28,03,10,10.00
2006,06,28,03,11,10.00
2006,06,28,03,12,10.00
2006,06,28,03,13,10.00
2006,06,28,03,14,10.00
2006,06,28,03,15,9.90
2006,06,28,03,16,9.90
2006,06,28,03,17,9.90
2006,06,28,03,18,9.90
2006,06,28,03,19,9.90
2006,06,28,03,20,9.90
2006,06,28,03,21,9.90
2006,06,28,03,22,9.80
2006,06,28,03,23,9.80
2006,06,28,03,24,9.80
2006,06,28,03,25,9.80
2006,06,28,03,26,9.80
2006,06,28,03,27,9.80
2006,06,28,03,28,9.80
2006,06,28,03,29,9.80
2006,06,28,03,30,9.80
2006,06,28,03,31,9.80
2006,06,28,03,32,9.80
2006,06,28,03,33,9.80
2006,06,28,03,34,9.70
2006,06,28,03,35,9.70
2006,06,28,03,36,9.70
2006,06,28,03,37,9.70
2006,06,28,03,38,9.70
2006,06,28,03,39,9.70
2006,06,28,03,40,9.60
2006,06,28,03,41,9.60
2006,06,28,03,42,9.60
2006,06,28,03,43,9.60
2006,06,28,03,44,9.60
2006,06,28,03,45,9.60
2006,06,28,03,46,9.60
2006,06,28,03,47,9.50
2006,06,28,03,48,9.50
2006,06,28,03,49,9.50
2006,06,28,03,50,9.50
2006,06,28,03,51,9.40
2006,06,28,03,52,9.40
2006,06,28,03,53,9.40
2006,06,28,03,54,9.40
2006,06,28,03,55,9.40
2006,06,28,03,56,9.40
2006,06,28,03,57,9.30
2006,06,28,03,58,9.30
2006,06,28,03,59,9.30
2006,06,28,04,00,9.30
2006,06,28,04,01,9.30
2006,06,28,04,02,9.30
2006,06,28,04,03,9.30
2006,06,28,04,04,9.30
2006,06,28,04,05,9.30
2006,06,28,04,06,9.30
2006,06,28,04,07,9.30
2006,06,28,04,08,9.30
2006,06,28,04,09,9.30
2006,06,28,04,10,9.30
2006,06,28,04,11,9.30
2006,06,28,04,12,9.20
2006,06,28,04,13,9.20
2006,06,28,04,14,9.20
2006,06,28,04,15,9.20
2006,06,28,04,16,9.10
2006,06,28,04,17,9.10
2006,06,28,04,18,9.10
2006,06,28,04,19,9.10
2006,06,28,04,20,9.10
2006,06,28,04,21,9.10
2006,06,28,04,22,9.10
2006,06,28,04,23,9.10
2006,06,28,04,24,9.10
2006,06,28,04,25,9.10
2006,06,28,04,26,9.10
2006,06,28,04,27,9.10
2006,06,28,04,28,9.10
2006,06,28,04,29,9.10
2006,06,28,04,30,9.10
2006,06,28,04,31,9.10
2006,06,28,04,32,9.10
2006,06,28,04,33,9.10
2006,06,28,04,34,9.10
2006,06,28,04,35,9.10
2006,06,28,04,36,9.20
2006,06,28,04,37,9.20
2006,06,28,04,38,9.20
2006,06,28,04,39,9.20
2006,06,28,04,40,9.20
2006,06,28,04,41,9.30
2006,06,28,04,42,9.30
2006,06,28,04,43,9.30
2006,06,28,04,44,9.30
2006,06,28,04,45,9.30
2006,06,28,04,46,9.30
2006,06,28,04,47,9.40
2006,06,28,04,48,9.40
2006,06,28,04,49,9.40
2006,06,28,04,50,9.40
2006,06,28,04,51,9.40
2006,06,28,04,52,9.40
2006,06,28,04,53,9.40
2006,06,28,04,54,9.40
2006,06,28,04,55,9.40
2006,06,28,04,56,9.40
2006,06,28,04,57,9.40
2006,06,28,04,58,9.40
2006,06,28,04,59,9.40
2006,06,28,05,00,9.40
2006,06,28,05,01,9.40
2006,06,28,05,02,9.40
2006,06,28,05,03,9.50
2006,06,28,05,04,9.50
2006,06,28,05,05,9.50
2006,06,28,05,06,9.60
2006,06,28,05,07,9.60
2006,06,28,05,08,9.60
2006,06,28,05,09,9.60
2006,06,28,05,10,9.60
2006,06,28,05,11,9.60
2006,06,28,05,12,9.60
2006,06,28,05,13,9.60
2006,06,28,05,14,9.60
2006,06,28,05,15,9.60
2006,06,28,05,16,9.60
2006,06,28,05,17,9.70
2006,06,28,05,18,9.70
2006,06,28,05,19,9.70
2006,06,28,05,20,9.70
2006,06,28,05,21,9.70
2006,06,28,05,22,9.60
2006,06,28,05,23,9.60
2006,06,28,05,24,9.60
2006,06,28,05,25,9.60
2006,06,28,05,26,9.60
2006,06,28,05,27,9.60
2006,06,28,05,28,9.50
2006,06,28,05,29,9.50
2006,06,28,05,30,9.50
2006,06,28,05,31,9.50
2006,06,28,05,32,9.50
2006,06,28,05,33,9.50
2006,06,28,05,34,9.50
2006,06,28,05,35,9.50
2006,06,28,05,36,9.50
2006,06,28,05,37,9.50
2006,06,28,05,38,9.50
2006,06,28,05,39,9.50
2006,06,28,05,40,9.50
2006,06,28,05,41,9.50
2006,06,28,05,42,9.50
2006,06,28,05,43,9.40
2006,06,28,05,44,9.40
2006,06,28,05,45,9.40
2006,06,28,05,46,9.40
2006,06,28,05,47,9.40
2006,06,28,05,48,9.50
2006,06,28,05,49,9.50
2006,06,28,05,50,9.50
2006,06,28,05,51,9.50
2006,06,28,05,52,9.60
2006,06,28,05,53,9.60
2006,06,28,05,54,9.60
2006,06,28,05,55,9.70
2006,06,28,05,56,9.70
2006,06,28,05,57,9.70
2006,06,28,05,58,9.80
2006,06,28,05,59,9.80
2006,06,28,06,00,9.80
2006,06,28,06,01,9.90
2006,06,28,06,02,9.90
2006,06,28,06,03,9.90
2006,06,28,06,04,10.00
2006,06,28,06,05,10.00
2006,06,28,06,06,10.10
2006,06,28,06,07,10.10
2006,06,28,06,08,10.20
2006,06,28,06,09,10.20
2006,06,28,06,10,10.30
2006,06,28,06,11,10.30
2006,06,28,06,12,10.40
2006,06,28,06,13,10.50
2006,06,28,06,14,10.50
2006,06,28,06,15,10.60
2006,06,28,06,16,10.60
2006,06,28,06,17,10.70
2006,06,28,06,18,10.70
2006,06,28,06,19,10.80
2006,06,28,06,20,10.80
2006,06,28,06,21,10.80
2006,06,28,06,22,10.90
2006,06,28,06,23,10.90
2006,06,28,06,24,10.90
2006,06,28,06,25,10.90
2006,06,28,06,26,10.90
2006,06,28,06,27,10.90
2006,06,28,06,28,10.90
2006,06,28,06,29,10.90
2006,06,28,06,30,10.90
2006,06,28,06,31,10.90
2006,06,28,06,32,10.90
2006,06,28,06,33,11.00
2006,06,28,06,34,11.00
2006,06,28,06,35,11.00
2006,06,28,06,36,11.10
2006,06,28,06,37,11.10
2006,06,28,06,38,11.10
2006,06,28,06,39,11.20
2006,06,28,06,40,11.20
2006,06,28,06,41,11.20
2006,06,28,06,42,11.30
2006,06,28,06,43,11.30
2006,06,28,06,44,11.30
2006,06,28,06,45,11.30
2006,06,28,06,46,11.40
2006,06,28,06,47,11.40
2006,06,28,06,48,11.50
2006,06,28,06,49,11.50
2006,06,28,06,50,11.60
2006,06,28,06,51,11.60
2006,06,28,06,52,11.70
2006,06,28,06,53,11.70
2006,06,28,06,54,11.70
2006,06,28,06,55,11.80
2006,06,28,06,56,11.80
2006,06,28,06,57,11.80
2006,06,28,06,58,11.80
2006,06,28,06,59,11.90
2006,06,28,07,00,11.90
2006,06,28,07,01,11.90
2006,06,28,07,02,12.00
2006,06,28,07,03,12.00
2006,06,28,07,04,12.10
2006,06,28,07,05,12.10
2006,06,28,07,06,12.20
2006,06,28,07,07,12.30
2006,06,28,07,08,12.30
2006,06,28,07,09,12.40
2006,06,28,07,10,12.40
2006,06,28,07,11,12.50
2006,06,28,07,12,12.60
2006,06,28,07,13,12.70
2006,06,28,07,14,12.80
2006,06,28,07,15,12.80
2006,06,28,07,16,12.90
2006,06,28,07,17,13.00
2006,06,28,07,18,13.10
2006,06,28,07,19,13.20
2006,06,28,07,20,13.20
2006,06,28,07,21,13.30
2006,06,28,07,22,13.40
2006,06,28,07,23,13.50
2006,06,28,07,24,13.70
2006,06,28,07,25,13.80
2006,06,28,07,26,13.90
2006,06,28,07,27,14.00
2006,06,28,07,28,14.00
2006,06,28,07,29,14.10
2006,06,28,07,30,14.10
2006,06,28,07,31,14.20
2006,06,28,07,32,14.20
2006,06,28,07,33,14.30
2006,06,28,07,34,14.40
2006,06,28,07,35,14.50
2006,06,28,07,36,14.50
2006,06,28,07,37,14.60
2006,06,28,07,38,14.60
2006,06,28,07,39,14.60
2006,06,28,07,40,14.60
2006,06,28,07,41,14.60
2006,06,28,07,42,14.70
2006,06,28,07,43,14.70
2006,06,28,07,44,14.80
2006,06,28,07,45,14.90
2006,06,28,07,46,14.90
2006,06,28,07,47,14.90
2006,06,28,07,48,14.90
2006,06,28,07,49,15.00
2006,06,28,07,50,15.00
2006,06,28,07,51,15.00
2006,06,28,07,52,15.00
2006,06,28,07,53,15.00
2006,06,28,07,54,14.80
2006,06,28,07,55,14.70
2006,06,28,07,56,14.50
2006,06,28,07,57,14.30
2006,06,28,07,58,14.20
2006,06,28,07,59,14.10
2006,06,28,08,00,14.00
2006,06,28,08,01,14.00
2006,06,28,08,02,14.00
2006,06,28,08,03,14.10
2006,06,28,08,04,14.10
2006,06,28,08,05,14.20
2006,06,28,08,06,14.20
2006,06,28,08,07,14.30
2006,06,28,08,08,14.30
2006,06,28,08,09,14.40
2006,06,28,08,10,14.40
2006,06,28,08,11,14.50
2006,06,28,08,12,14.50
2006,06,28,08,13,14.60
2006,06,28,08,14,14.60
2006,06,28,08,15,14.70
2006,06,28,08,16,14.70
2006,06,28,08,17,14.60
2006,06,28,08,18,14.60
2006,06,28,08,19,14.60
2006,06,28,08,20,14.60
2006,06,28,08,21,14.60
2006,06,28,08,22,14.70
2006,06,28,08,23,14.80
2006,06,28,08,24,14.80
2006,06,28,08,25,14.80
2006,06,28,08,26,14.70
2006,06,28,08,27,14.70
2006,06,28,08,28,14.70
2006,06,28,08,29,14.80
2006,06,28,08,30,14.70
2006,06,28,08,31,14.70
2006,06,28,08,32,14.70
2006,06,28,08,33,14.70
2006,06,28,08,34,14.70
2006,06,28,08,35,14.70
2006,06,28,08,36,14.80
2006,06,28,08,37,15.00
2006,06,28,08,38,15.00
2006,06,28,08,39,15.00
2006,06,28,08,40,15.00
2006,06,28,08,41,15.20
2006,06,28,08,42,15.30
2006,06,28,08,43,15.40
2006,06,28,08,44,15.50
2006,06,28,08,45,15.60
2006,06,28,08,46,15.60
2006,06,28,08,47,15.70
2006,06,28,08,48,15.70
2006,06,28,08,49,15.80
2006,06,28,08,50,15.80
2006,06,28,08,51,15.80
2006,06,28,08,52,15.80
2006,06,28,08,53,15.80
2006,06,28,08,54,15.80
2006,06,28,08,55,15.80
2006,06,28,08,56,15.80
2006,06,28,08,57,15.80
2006,06,28,08,58,15.90
2006,06,28,08,59,15.90
2006,06,28,09,00,16.00
2006,06,28,09,01,16.10
2006,06,28,09,02,16.20
2006,06,28,09,03,16.20
2006,06,28,09,04,16.30
2006,06,28,09,05,16.20
2006,06,28,09,06,16.20
2006,06,28,09,07,16.20
2006,06,28,09,08,16.10
2006,06,28,09,09,16.10
2006,06,28,09,10,16.10
2006,06,28,09,11,16.10
2006,06,28,09,12,16.00
2006,06,28,09,13,16.00
2006,06,28,09,14,16.00
2006,06,28,09,15,16.00
2006,06,28,09,16,16.10
2006,06,28,09,17,16.10
2006,06,28,09,18,16.00
2006,06,28,09,19,16.00
2006,06,28,09,20,15.90
2006,06,28,09,21,16.00
2006,06,28,09,22,16.00
2006,06,28,09,23,15.90
2006,06,28,09,24,15.90
2006,06,28,09,25,15.90
2006,06,28,09,26,15.90
2006,06,28,09,27,16.00
2006,06,28,09,28,16.00
2006,06,28,09,29,16.00
2006,06,28,09,30,16.10
2006,06,28,09,31,16.20
2006,06,28,09,32,16.30
2006,06,28,09,33,16.40
2006,06,28,09,34,16.50
2006,06,28,09,35,16.60
2006,06,28,09,36,16.60
2006,06,28,09,37,16.70
2006,06,28,09,38,16.80
2006,06,28,09,39,16.80
2006,06,28,09,40,16.70
2006,06,28,09,41,16.60
2006,06,28,09,42,16.50
2006,06,28,09,43,16.40
2006,06,28,09,44,16.30
2006,06,28,09,45,16.20
2006,06,28,09,46,16.00
2006,06,28,09,47,15.90
2006,06,28,09,48,15.90
2006,06,28,09,49,15.90
2006,06,28,09,50,15.80
2006,06,28,09,51,15.80
2006,06,28,09,52,15.80
2006,06,28,09,53,15.70
2006,06,28,09,54,15.60
2006,06,28,09,55,15.60
2006,06,28,09,56,15.60
2006,06,28,09,57,15.60
2006,06,28,09,58,15.70
2006,06,28,09,59,15.70
2006,06,28,10,00,15.70
2006,06,28,10,01,15.70
2006,06,28,10,02,15.70
2006,06,28,10,03,15.70
2006,06,28,10,04,15.80
2006,06,28,10,05,15.80
2006,06,28,10,06,15.70
2006,06,28,10,07,15.70
2006,06,28,10,08,15.80
2006,06,28,10,09,15.80
2006,06,28,10,10,15.90
2006,06,28,10,11,15.90
2006,06,28,10,12,15.90
2006,06,28,10,13,15.90
2006,06,28,10,14,15.90
2006,06,28,10,15,15.90
2006,06,28,10,16,15.90
2006,06,28,10,17,16.00
2006,06,28,10,18,15.90
2006,06,28,10,19,15.90
2006,06,28,10,20,15.90
2006,06,28,10,21,15.80
2006,06,28,10,22,15.80
2006,06,28,10,23,15.90
2006,06,28,10,24,16.00
2006,06,28,10,25,16.00
2006,06,28,10,26,16.00
2006,06,28,10,27,16.00
2006,06,28,10,28,16.00
2006,06,28,10,29,16.00
2006,06,28,10,30,15.90
2006,06,28,10,31,15.80
2006,06,28,10,32,15.80
2006,06,28,10,33,15.90
2006,06,28,10,34,15.90
2006,06,28,10,35,15.90
2006,06,28,10,36,15.90
2006,06,28,10,37,15.90
2006,06,28,10,38,15.90
2006,06,28,10,39,15.80
2006,06,28,10,40,15.90
2006,06,28,10,41,16.00
2006,06,28,10,42,16.10
2006,06,28,10,43,16.20
2006,06,28,10,44,16.20
2006,06,28,10,45,16.30
2006,06,28,10,46,16.30
2006,06,28,10,47,16.30
2006,06,28,10,48,16.40
2006,06,28,10,49,16.40
2006,06,28,10,50,16.50
2006,06,28,10,51,16.60
2006,06,28,10,52,16.80
2006,06,28,10,53,16.80
2006,06,28,10,54,16.80
2006,06,28,10,55,16.80
2006,06,28,10,56,16.80
2006,06,28,10,57,16.80
2006,06,28,10,58,16.80
2006,06,28,10,59,16.70
2006,06,28,11,00,16.70
2006,06,28,11,01,16.60
2006,06,28,11,02,16.60
2006,06,28,11,03,16.70
2006,06,28,11,04,16.70
2006,06,28,11,05,16.80
2006,06,28,11,06,16.90
2006,06,28,11,07,16.90
2006,06,28,11,08,17.00
2006,06,28,11,09,17.00
2006,06,28,11,10,16.90
2006,06,28,11,11,16.90
2006,06,28,11,12,16.90
2006,06,28,11,13,17.00
2006,06,28,11,14,16.90
2006,06,28,11,15,16.90
2006,06,28,11,16,16.80
2006,06,28,11,17,16.90
2006,06,28,11,18,17.00
2006,06,28,11,19,17.10
2006,06,28,11,20,17.10
2006,06,28,11,21,17.10
2006,06,28,11,22,17.20
2006,06,28,11,23,17.30
2006,06,28,11,24,17.50
2006,06,28,11,25,17.60
2006,06,28,11,26,17.70
2006,06,28,11,27,17.60
2006,06,28,11,28,17.50
2006,06,28,11,29,17.20
2006,06,28,11,30,17.00
2006,06,28,11,31,16.80
2006,06,28,11,32,16.70
2006,06,28,11,33,16.70
2006,06,28,11,34,16.70
2006,06,28,11,35,16.90
2006,06,28,11,36,17.00
2006,06,28,11,37,17.00
2006,06,28,11,38,17.00
2006,06,28,11,39,17.00
2006,06,28,11,40,17.00
2006,06,28,11,41,17.20
2006,06,28,11,42,17.30
2006,06,28,11,43,17.40
2006,06,28,11,44,17.40
2006,06,28,11,45,17.30
2006,06,28,11,46,17.20
2006,06,28,11,47,17.20
2006,06,28,11,48,17.20
2006,06,28,11,49,17.30
2006,06,28,11,50,17.50
2006,06,28,11,51,17.60
2006,06,28,11,52,17.60
2006,06,28,11,53,17.70
2006,06,28,11,54,17.70
2006,06,28,11,55,17.70
2006,06,28,11,56,17.80
2006,06,28,11,57,17.70
2006,06,28,11,58,17.50
2006,06,28,11,59,17.30
2006,06,28,12,00,17.10
2006,06,28,12,01,17.10
2006,06,28,12,02,17.00
2006,06,28,12,03,16.90
2006,06,28,12,04,16.90
2006,06,28,12,05,16.80
2006,06,28,12,06,16.80
2006,06,28,12,07,17.00
2006,06,28,12,08,17.10
2006,06,28,12,09,17.10
2006,06,28,12,10,17.10
2006,06,28,12,11,17.10
2006,06,28,12,12,17.00
2006,06,28,12,13,17.00
2006,06,28,12,14,17.10
2006,06,28,12,15,17.10
2006,06,28,12,16,17.20
2006,06,28,12,17,17.20
2006,06,28,12,18,17.20
2006,06,28,12,19,17.30
2006,06,28,12,20,17.30
2006,06,28,12,21,17.30
2006,06,28,12,22,17.30
2006,06,28,12,23,17.30
2006,06,28,12,24,17.20
2006,06,28,12,25,17.20
2006,06,28,12,26,17.10
2006,06,28,12,27,17.00
2006,06,28,12,28,16.90
2006,06,28,12,29,17.00
2006,06,28,12,30,17.00
2006,06,28,12,31,17.10
2006,06,28,12,32,17.10
2006,06,28,12,33,17.10
2006,06,28,12,34,17.10
2006,06,28,12,35,17.20
2006,06,28,12,36,17.20
2006,06,28,12,37,17.20
2006,06,28,12,38,17.20
2006,06,28,12,39,17.20
2006,06,28,12,40,17.30
2006,06,28,12,41,17.40
2006,06,28,12,42,17.40
2006,06,28,12,43,17.30
2006,06,28,12,44,17.40
2006,06,28,12,45,17.50
2006,06,28,12,46,17.60
2006,06,28,12,47,17.60
2006,06,28,12,48,17.50
2006,06,28,12,49,17.50
2006,06,28,12,50,17.60
2006,06,28,12,51,17.80
2006,06,28,12,52,17.80
2006,06,28,12,53,17.80
2006,06,28,12,54,17.90
2006,06,28,12,55,18.00
2006,06,28,12,56,18.00
2006,06,28,12,57,18.10
2006,06,28,12,58,18.00
2006,06,28,12,59,17.90
2006,06,28,13,00,17.80
2006,06,28,13,01,17.70
2006,06,28,13,02,17.60
2006,06,28,13,03,17.50
2006,06,28,13,04,17.40
2006,06,28,13,05,17.50
2006,06,28,13,06,17.60
2006,06,28,13,07,17.50
2006,06,28,13,08,17.50
2006,06,28,13,09,17.40
2006,06,28,13,10,17.40
2006,06,28,13,11,17.40
2006,06,28,13,12,17.30
2006,06,28,13,13,17.50
2006,06,28,13,14,17.60
2006,06,28,13,15,17.80
2006,06,28,13,16,17.90
2006,06,28,13,17,18.10
2006,06,28,13,18,18.20
2006,06,28,13,19,18.20
2006,06,28,13,20,18.20
2006,06,28,13,21,18.10
2006,06,28,13,22,18.20
2006,06,28,13,23,18.20
2006,06,28,13,24,18.30
2006,06,28,13,25,18.40
2006,06,28,13,26,18.40
2006,06,28,13,27,18.40
2006,06,28,13,28,18.50
2006,06,28,13,29,18.50
2006,06,28,13,30,18.70
2006,06,28,13,31,18.80
2006,06,28,13,32,18.90
2006,06,28,13,33,18.90
2006,06,28,13,34,18.80
2006,06,28,13,35,18.80
2006,06,28,13,36,18.70
2006,06,28,13,37,18.60
2006,06,28,13,38,18.50
2006,06,28,13,39,18.50
2006,06,28,13,40,18.40
2006,06,28,13,41,18.40
2006,06,28,13,42,18.30
2006,06,28,13,43,18.30
2006,06,28,13,44,18.20
2006,06,28,13,45,18.20
2006,06,28,13,46,18.30
2006,06,28,13,47,18.40
2006,06,28,13,48,18.40
2006,06,28,13,49,18.50
2006,06,28,13,50,18.60
2006,06,28,13,51,18.70
2006,06,28,13,52,18.70
2006,06,28,13,53,18.80
2006,06,28,13,54,18.80
2006,06,28,13,55,18.70
2006,06,28,13,56,18.80
2006,06,28,13,57,18.80
2006,06,28,13,58,18.90
2006,06,28,13,59,19.00
2006,06,28,14,00,19.10
2006,06,28,14,01,19.10
2006,06,28,14,02,19.10
2006,06,28,14,03,19.00
2006,06,28,14,04,18.90
2006,06,28,14,05,18.80
2006,06,28,14,06,18.80
2006,06,28,14,07,18.70
2006,06,28,14,08,18.70
2006,06,28,14,09,18.80
2006,06,28,14,10,18.90
2006,06,28,14,11,18.90
2006,06,28,14,12,18.80
2006,06,28,14,13,18.80
2006,06,28,14,14,18.90
2006,06,28,14,15,19.00
2006,06,28,14,16,19.00
2006,06,28,14,17,19.00
2006,06,28,14,18,19.00
2006,06,28,14,19,19.10
2006,06,28,14,20,19.10
2006,06,28,14,21,19.10
2006,06,28,14,22,19.20
2006,06,28,14,23,19.20
2006,06,28,14,24,19.10
2006,06,28,14,25,19.10
2006,06,28,14,26,19.00
2006,06,28,14,27,18.90
2006,06,28,14,28,18.90
2006,06,28,14,29,19.00
2006,06,28,14,30,18.90
2006,06,28,14,31,18.90
2006,06,28,14,32,18.90
2006,06,28,14,33,18.90
2006,06,28,14,34,18.90
2006,06,28,14,35,18.80
2006,06,28,14,36,18.80
2006,06,28,14,37,18.90
2006,06,28,14,38,18.90
2006,06,28,14,39,19.00
2006,06,28,14,40,19.10
2006,06,28,14,41,19.20
2006,06,28,14,42,19.20
2006,06,28,14,43,19.20
2006,06,28,14,44,19.10
2006,06,28,14,45,19.10
2006,06,28,14,46,19.10
2006,06,28,14,47,19.20
2006,06,28,14,48,19.30
2006,06,28,14,49,19.40
2006,06,28,14,50,19.30
2006,06,28,14,51,19.30
2006,06,28,14,52,19.40
2006,06,28,14,53,19.50
2006,06,28,14,54,19.50
2006,06,28,14,55,19.50
2006,06,28,14,56,19.50
2006,06,28,14,57,19.50
2006,06,28,14,58,19.50
2006,06,28,14,59,19.60
2006,06,28,15,00,19.70
2006,06,28,15,01,19.80
2006,06,28,15,02,19.70
2006,06,28,15,03,19.60
2006,06,28,15,04,19.50
2006,06,28,15,05,19.60
2006,06,28,15,06,19.60
2006,06,28,15,07,19.70
2006,06,28,15,08,19.70
2006,06,28,15,09,19.80
2006,06,28,15,10,19.90
2006,06,28,15,11,19.90
2006,06,28,15,12,19.80
2006,06,28,15,13,19.80
2006,06,28,15,14,19.80
2006,06,28,15,15,19.80
2006,06,28,15,16,19.80
2006,06,28,15,17,19.70
2006,06,28,15,18,19.70
2006,06,28,15,19,19.70
2006,06,28,15,20,19.80
2006,06,28,15,21,19.90
2006,06,28,15,22,19.90
2006,06,28,15,23,19.90
2006,06,28,15,24,19.90
2006,06,28,15,25,20.00
2006,06,28,15,26,20.10
2006,06,28,15,27,20.10
2006,06,28,15,28,20.20
2006,06,28,15,29,20.30
2006,06,28,15,30,20.50
2006,06,28,15,31,20.60
2006,06,28,15,32,20.80
2006,06,28,15,33,20.90
2006,06,28,15,34,20.90
2006,06,28,15,35,20.90
2006,06,28,15,36,20.90
2006,06,28,15,37,20.80
2006,06,28,15,38,20.80
2006,06,28,15,39,20.60
2006,06,28,15,40,20.50
2006,06,28,15,41,20.50
2006,06,28,15,42,20.40
2006,06,28,15,43,20.40
2006,06,28,15,44,20.50
2006,06,28,15,45,20.60
2006,06,28,15,46,20.70
2006,06,28,15,47,20.70
2006,06,28,15,48,20.70
2006,06,28,15,49,20.70
2006,06,28,15,50,20.70
2006,06,28,15,51,20.70
2006,06,28,15,52,20.70
2006,06,28,15,53,20.80
2006,06,28,15,54,20.80
2006,06,28,15,55,20.90
2006,06,28,15,56,21.00
2006,06,28,15,57,20.90
2006,06,28,15,58,20.90
2006,06,28,15,59,20.90
2006,06,28,16,00,20.80
2006,06,28,16,01,20.70
2006,06,28,16,02,20.70
2006,06,28,16,03,20.60
2006,06,28,16,04,20.50
2006,06,28,16,05,20.60
2006,06,28,16,06,20.60
2006,06,28,16,07,20.60
2006,06,28,16,08,20.40
2006,06,28,16,09,20.50
2006,06,28,16,10,20.50
2006,06,28,16,11,20.50
2006,06,28,16,12,20.50
2006,06,28,16,13,20.60
2006,06,28,16,14,20.60
2006,06,28,16,15,20.70
2006,06,28,16,16,20.60
2006,06,28,16,17,20.40
2006,06,28,16,18,20.30
2006,06,28,16,19,20.40
2006,06,28,16,20,20.40
2006,06,28,16,21,20.30
2006,06,28,16,22,20.20
2006,06,28,16,23,20.20
2006,06,28,16,24,20.20
2006,06,28,16,25,20.20
2006,06,28,16,26,20.20
2006,06,28,16,27,20.20
2006,06,28,16,28,20.20
2006,06,28,16,29,20.20
2006,06,28,16,30,20.10
2006,06,28,16,31,20.10
2006,06,28,16,32,20.10
2006,06,28,16,33,20.10
2006,06,28,16,34,20.00
2006,06,28,16,35,20.10
2006,06,28,16,36,20.20
2006,06,28,16,37,20.30
2006,06,28,16,38,20.30
2006,06,28,16,39,20.30
2006,06,28,16,40,20.30
2006,06,28,16,41,20.40
2006,06,28,16,42,20.40
2006,06,28,16,43,20.60
2006,06,28,16,44,20.70
2006,06,28,16,45,20.90
2006,06,28,16,46,21.00
2006,06,28,16,47,21.10
2006,06,28,16,48,21.20
2006,06,28,16,49,21.10
2006,06,28,16,50,21.00
2006,06,28,16,51,21.00
2006,06,28,16,52,21.00
2006,06,28,16,53,20.90
2006,06,28,16,54,20.90
2006,06,28,16,55,20.90
2006,06,28,16,56,20.90
2006,06,28,16,57,20.80
2006,06,28,16,58,20.90
2006,06,28,16,59,20.90
2006,06,28,17,00,20.90
2006,06,28,17,01,20.80
2006,06,28,17,02,20.90
2006,06,28,17,03,20.90
2006,06,28,17,04,21.00
2006,06,28,17,05,21.00
2006,06,28,17,06,21.00
2006,06,28,17,07,21.00
2006,06,28,17,08,21.10
2006,06,28,17,09,21.10
2006,06,28,17,10,21.10
2006,06,28,17,11,21.00
2006,06,28,17,12,20.90
2006,06,28,17,13,20.80
2006,06,28,17,14,20.60
2006,06,28,17,15,20.40
2006,06,28,17,16,20.40
2006,06,28,17,17,20.40
2006,06,28,17,18,20.40
2006,06,28,17,19,20.30
2006,06,28,17,20,20.30
2006,06,28,17,21,20.40
2006,06,28,17,22,20.30
2006,06,28,17,23,20.30
2006,06,28,17,24,20.30
2006,06,28,17,25,20.20
2006,06,28,17,26,20.20